Other Public Products
Issued by NWS Charleston, SC

Current Version | Previous Version | Graphics & Text | Print | Product List | Glossary On
Versions: 1 2 3 4 5 6 7 8 9 10 11 12 13 14 15 16 17 18 19 20 21 22 23 24 25 26 27 28 29 30 31 32 33 34 35 36 37 38 39 40 41 42 43 44 45 46 47 48 49 50
954
FPUS82 KCHS 221012
OPUCHS

TEST...KCHS/KSAV Gateway Observations...TEST
National Weather Service Charleston SC
600 AM EDT THU JUN 22 2017

NOTE: "fair" indicates few or no clouds below 12,000 feet with no
significant weather and/or obstructions to visibility.

SCZ050-WAZ558-NCZ071-TXZ119-213-PAZ071-DCZ001-FLZ074-172-MI076-
NYZ176-178-MAZ016-IL014-TNZ027-NJZ106-GAZ044-MD014-221100-

...Gateway Observations for Charleston International...

CITY           SKY/WX    TMP DP  RH WIND       PRES   REMARKS
Chas Airport   CLOUDY    78  76  93 CALM      30.07S
Seattle        CLEAR     55  46  71 NE5       30.31S
Charlotte      CLOUDY    74  71  91 SW3       30.10S
Dallas DFW     MOCLDY    77  70  79 NE12      29.71F
Dallas Love    CLOUDY    77  69  76 NE9       29.72F
Philladelphia  CLOUDY    70  65  84 W5        30.01R
Wash National  CLOUDY    76  71  85 CALM      30.00R
Baltimore      MOCLDY    68  67  96 CALM      29.99S
Miami          PTCLDY    82  76  81 SE9       30.03F
Detroit        CLOUDY    64  58  80 S3        29.94F
Newark         PTCLDY    67  58  72 NE6       30.00R
Laguardia      MOCLDY    68  57  68 E3        29.99R
J F K          PTCLDY    68  60  75 N3        30.00R
Boston Logan   CLEAR     66  52  60 W8        29.96
Ft. Lauderdale PTCLDY    82  76  81 SE12      30.03S
Chicago O`Hare CLOUDY    77  67  71 SW12      29.82S
Chicago Midway CLOUDY    78  68  71 SW14      29.83S
Houston Bush   CLOUDY    76  73  91 NW9       29.56S
Houston Hobby  LGT RAIN  77  74  90 NW12      29.56R
Nashville      CLOUDY    74  67  78 SE6       30.00S
Atlanta        CLOUDY    72  70  93 E8        30.07S

$$

GAZ044-118-TXZ119-213-NCZ071-DCZ001-MDZ014-506-PAZ021-071-NJZ106-
NYZ176-178-MAZ106-OHZ011-021-055-MIZ076-KYZ091-ILZ014-INZ047-
MNZ060-ONZ431-221100-

...Gateway Observations for Savannah International...

CITY           SKY/WX    TMP DP  RH WIND       PRES   REMARKS
Savannah Arpt  MOCLDY    77  75  93 SE5       30.06S
Atlanta        CLOUDY    72  70  93 E8        30.07S
Charlotte      CLOUDY    74  71  91 SW3       30.10S
Dallas DFW     MOCLDY    77  70  79 NE12      29.71F
Houston Bush   CLOUDY    76  73  91 NW9       29.56S
Wash National  CLOUDY    76  71  85 CALM      30.00R
Wash Dulles    MOCLDY    67  64  90 CALM      30.01R
Baltimore      MOCLDY    68  67  96 CALM      29.99S
Philadelphia   CLOUDY    70  65  84 W5        30.01R
Newark         PTCLDY    67  58  72 NE6       30.00R
Laguardia      MOCLDY    68  57  68 E3        29.99R
J F K          PTCLDY    68  60  75 N3        30.00R
Boston         CLEAR     66  52  60 W8        29.96
Pittsburg      CLOUDY    63  61  93 CALM      30.01R
Akron          MOCLDY    66  54  65 SE7       30.01R
Cleveland      MOCLDY    65  54  67 S6        29.99S
Cincinnati     CLOUDY    71  67  87 S8        30.01S
Columbus       MOCLDY    70  68  94 S5        29.99S
Detroit        CLOUDY    64  58  80 S3        29.94F
Chicago O`Hare CLOUDY    77  67  71 SW12      29.82S
Minneapolis    MOCLDY    68  62  81 N3        29.66R
Indianapolis   MOCLDY    72  67  84 S7        29.95F
Toronto Canada PTCLDY    59  52  77 S3        29.97R

$$




USA.gov is the U.S. government's official web portal to all federal, state and local government web resources and services.